Araxos, Greece

7:22 AM EEST on May 25, 2017 (GMT +0300)
Araxos Air Base

Weather History for LGRX - May, 2013

Change the Weather History Date:

Tuesday, May 14, 2013

  Actual Average Record
Temperature  
Mean Temperature 66 °F -  
Max Temperature 73 °F 78 °F 89 °F (2007)
Min Temperature 59 °F 58 °F 51 °F (2006)
Cooling Degree Days 1    
Growing Degree Days 16 (Base 50)    
Moisture  
Dew Point 57 °F    
Average Humidity 72    
Maximum Humidity 94    
Minimum Humidity 53    
Precipitation  
Precipitation 0.00 in - - ()
Sea Level Pressure  
Sea Level Pressure 29.78 in    
Wind  
Wind Speed 3 mph ()    
Max Wind Speed 12 mph    
Max Gust Speed -    
Visibility 6.2 miles    
Events Rain    
Averages and records for this station are not official NWS values.
T = Trace of Precipitation, MM = Missing Value Source: Averaged Metar Reports

Daily Weather History Graph

Daily Weather History Graph

Search for Another Location

Airport or City:

Trip Planner

Search our weather history database for the weather conditions in past years. The results will help you decide how hot, cold, wet, or windy it might be!

Date:

Astronomy

May. 14, 2013 Rise Set
Actual Time 6:24 AM EEST 8:37 PM EEST
Civil Twilight 5:55 AM EEST 9:06 PM EEST
Nautical Twilight 5:18 AM EEST 9:43 PM EEST
Astronomical Twilight 4:39 AM EEST 10:22 PM EEST
Moon 9:47 AM EEST (5/14) No Moon Set
Length of Visible Light 15h 11m
Length of Day
14h 12m
Waxing Crescent, 16% of the Moon is Illuminated
May 14
Waxing Crescent
May 18
First Quarter
May 25
Full
May 31
Last Quarter
Jun 8
New

Hourly Weather History & Observations

Time (EEST) Temp. Dew Point Humidity Pressure Visibility Wind Dir Wind Speed Gust Speed Precip Events Conditions
12:50 AM 62.6 °F 57.2 °F 82% 29.74 in 6.2 mi Calm Calm - N/A   Partly Cloudy
1:50 AM 62.6 °F 57.2 °F 82% 29.74 in 6.2 mi Calm Calm - N/A   Partly Cloudy
3:50 AM 62.6 °F 57.2 °F 82% 29.74 in 6.2 mi Variable 3.5 mph - N/A   Scattered Clouds
4:50 AM 60.8 °F 53.6 °F 77% 29.71 in 6.2 mi North 6.9 mph - N/A   Scattered Clouds
5:50 AM 60.8 °F 55.4 °F 82% 29.74 in 6.2 mi North 9.2 mph - N/A Rain Light Rain
6:20 AM 59.0 °F 57.2 °F 94% 29.74 in 6.2 mi Calm Calm - N/A Rain Light Rain
6:50 AM 59.0 °F 57.2 °F 94% 29.74 in 6.2 mi Calm Calm - N/A Rain Light Rain
7:20 AM 60.8 °F 59.0 °F 94% 29.74 in 6.2 mi Calm Calm - N/A   Mostly Cloudy
7:50 AM 60.8 °F 57.2 °F 88% 29.77 in 6.2 mi Calm Calm - N/A   Mostly Cloudy
8:20 AM 62.6 °F 59.0 °F 88% 29.77 in 6.2 mi Calm Calm - N/A   Scattered Clouds
8:50 AM 64.4 °F 59.0 °F 83% 29.77 in 6.2 mi Calm Calm - N/A   Partly Cloudy
9:20 AM 64.4 °F 59.0 °F 83% 29.77 in 6.2 mi Calm Calm - N/A   Partly Cloudy
9:50 AM 64.4 °F 57.2 °F 77% 29.77 in 6.2 mi North 4.6 mph - N/A   Partly Cloudy
10:20 AM 66.2 °F 57.2 °F 73% 29.77 in 6.2 mi Calm Calm - N/A   Partly Cloudy
10:50 AM 68.0 °F 57.2 °F 68% 29.77 in 6.2 mi Variable 3.5 mph - N/A   Partly Cloudy
11:20 AM 68.0 °F 55.4 °F 64% 29.80 in 6.2 mi West 4.6 mph - N/A   Partly Cloudy
11:50 AM 69.8 °F 59.0 °F 68% 29.80 in 6.2 mi West 5.8 mph - N/A   Partly Cloudy
12:20 PM 69.8 °F 59.0 °F 68% 29.80 in 6.2 mi West 6.9 mph - N/A   Partly Cloudy
12:50 PM 69.8 °F 57.2 °F 64% 29.80 in 6.2 mi West 8.1 mph - N/A   Partly Cloudy
1:20 PM 71.6 °F 59.0 °F 64% 29.80 in 6.2 mi West 9.2 mph - N/A   Partly Cloudy
1:50 PM 71.6 °F 57.2 °F 60% 29.80 in 6.2 mi West 9.2 mph - N/A   Partly Cloudy
2:20 PM 71.6 °F 57.2 °F 60% 29.80 in 6.2 mi West 9.2 mph - N/A   Partly Cloudy
2:50 PM 71.6 °F 55.4 °F 57% 29.80 in 6.2 mi West 11.5 mph - N/A   Partly Cloudy
3:20 PM 71.6 °F 55.4 °F 57% 29.80 in 6.2 mi West 9.2 mph - N/A   Partly Cloudy
3:50 PM 73.4 °F 57.2 °F 57% 29.80 in 6.2 mi West 9.2 mph - N/A   Partly Cloudy
4:20 PM 73.4 °F 57.2 °F 57% 29.80 in 6.2 mi West 8.1 mph - N/A   Partly Cloudy
4:50 PM 73.4 °F 55.4 °F 53% 29.80 in 6.2 mi West 9.2 mph - N/A   Partly Cloudy
5:20 PM 73.4 °F 55.4 °F 53% 29.80 in 6.2 mi West 9.2 mph - N/A   Partly Cloudy
5:50 PM 73.4 °F 55.4 °F 53% 29.80 in 6.2 mi West 9.2 mph - N/A   Partly Cloudy
6:20 PM 73.4 °F 55.4 °F 53% 29.80 in 6.2 mi West 8.1 mph - N/A   Partly Cloudy
6:50 PM 73.4 °F 57.2 °F 57% 29.80 in 6.2 mi West 6.9 mph - N/A   Partly Cloudy
7:20 PM 71.6 °F 57.2 °F 60% 29.80 in 6.2 mi WSW 5.8 mph - N/A   Partly Cloudy
7:50 PM 69.8 °F 59.0 °F 68% 29.80 in 6.2 mi West 5.8 mph - N/A   Partly Cloudy
8:20 PM 68.0 °F 62.6 °F 83% 29.80 in 6.2 mi Calm Calm - N/A   Partly Cloudy
8:50 PM 66.2 °F 60.8 °F 83% 29.80 in 6.2 mi Calm Calm - N/A   Partly Cloudy
9:50 PM 64.4 °F 59.0 °F 83% 29.83 in 6.2 mi Calm Calm - N/A   Partly Cloudy
10:50 PM 62.6 °F 59.0 °F 88% 29.83 in 6.2 mi Calm Calm - N/A   Partly Cloudy
11:50 PM 62.6 °F 57.2 °F 82% 29.83 in 6.2 mi Calm Calm - N/A   Partly Cloudy